sat.trackr.live / text

‹ back to catalog

BRO-6

NORAD 52422 · 2022-047AE

PAYLOAD ACTIVE UNKNOWN

§ Identity

Operator
Country
FR
Launch date
2022-05-02
Launch site
RLLB
Launch vehicle
Mass (kg)
RCS (m²)

External: N2YO · Heavens-Above · Gunter

§ Orbital elements

Epoch: 2026-05-25T05:10:33.374784Z

Period
92.96 min
Inclination
97.3401°
Eccentricity
0.0005647
Mean motion
15.49028111 rev/d
Perigee alt
415.7 km
Apogee alt
423.4 km
Semi-major
6,797.7 km
B*
4.6647e-4
RAAN
235.8578°
Arg perigee
148.3842°
Mean anomaly
211.7749°
Rev number
22,759

§ Raw data

BRO-61 52422U 22047AE  26145.21566406  .00025232  00000+0  46647-3 0  99912 52422  97.3401 235.8578 0005647 148.3842 211.7749 15.49028111227599

JSON: /api/v1/satellites/52422 · /tle

For live sub-satellite position, see the globe view (requires WebGL).

§ Visibility from observer

Set your observer location to see the next 7 days of passes ≥ 10°. The values pass through the URL so the page stays shareable.

No JS? Fill the form by hand. The geolocation button needs JavaScript.

§ Radio — SatNOGS DB

ModeDescriptionDownlinkUplink
FSK AX.100 Mode 5 Mode U - TLM 401.550 MHz
FSK S-Band transmitter 2.261 GHz
FM S-band telemetry 2.276 GHz
FSK AX.100 Mode 5 Telemetry 401.246 MHz
FSK AX.100 Mode 5 Mode U - TLM (inactive) 401.735 MHz

5 transmitters · refreshed weekly from db.satnogs.org